This demonstration page uses our WeatherBlox Daily Observations layout. Learn more.

Left ArrowRight Arrow

39.95238, -75.16362

Hourly Observations for January 22, 2022

Temp ( °F °C ) Dew Point ( °F °C ) Humidity (%) Winds ( mph kmh ) Pressure ( in mb ) Visibility ( mi km ) Precip ( " mm )
12:54 am 00:54 Cloudy 22 -5.6 -1 -18.3 36 36 NNE 14 22 30.47 1032 10 16 0.00 0.00
1:54 am 01:54 Mostly Cloudy 21 -6.1 0 -17.8 39 39 NNE 12 19 30.45 1031 10 16 0.00 0.00
2:54 am 02:54 Mostly Cloudy 19 -7.2 -1 -18.3 41 41 NNE 10 17 30.44 1031 10 16 0.00 0.00
3:54 am 03:54 Mostly Cloudy 18 -7.8 0 -17.8 45 45 NNE 12 19 30.41 1030 10 16 0.00 0.00
4:54 am 04:54 Partly Cloudy 17 -8.3 0 -17.8 47 47 NNE 8 13 30.42 1030 10 16 0.00 0.00
5:54 am 05:54 Partly Cloudy 16 -8.9 -1 -18.3 47 47 NNE 8 13 30.42 1030 10 16 0.00 0.00
6:54 am 06:54 Mostly Clear 15 -9.4 -2 -18.9 46 46 N 8 13 30.45 1031 10 16 0.00 0.00
7:54 am 07:54 Mostly Sunny 15 -9.4 -1 -18.3 49 49 N 7 11 30.44 1031 10 16 0.00 0.00
8:54 am 08:54 Mostly Sunny 19 -7.2 -1 -18.3 41 41 N 8 13 30.45 1031 10 16 0.00 0.00
9:54 am 09:54 Sunny 21 -6.1 0 -17.8 39 39 N 8 13 30.45 1031 10 16 0.00 0.00
10:54 am 10:54 Sunny 24 -4.4 3 -16.1 40 40 VRB 5 7 30.43 1031 10 16 0.00 0.00
11:54 am 11:54 Sunny 27 -2.8 5 -15 39 39 NE 3 6 30.37 1029 10 16 0.00 0.00
12:54 pm 12:54 Mostly Sunny 29 -1.7 7 -13.9 39 39 Calm 30.33 1027 10 16 0.00 0.00
1:54 pm 13:54 Mostly Sunny 31 -0.6 2 -16.7 29 29 WNW 6 9 30.30 1026 10 16 0.00 0.00
2:54 pm 14:54 Mostly Sunny 33 0.6 0 -17.8 24 24 WNW 7 11 30.27 1025 10 16 0.00 0.00
3:54 pm 15:54 Mostly Sunny 32 0 -3 -19.4 22 22 NW 5 7 30.24 1024 10 16 0.00 0.00
4:54 pm 16:54 Partly Cloudy 32 0 3 -16.1 29 29 Calm 30.22 1023 10 16 0.00 0.00
5:54 pm 17:54 Partly Cloudy 31 -0.6 2 -16.7 29 29 SW 5 7 30.21 1023 10 16 0.00 0.00
6:54 pm 18:54 Partly Cloudy 30 -1.1 3 -16.1 31 31 SSW 5 7 30.20 1023 10 16 0.00 0.00
7:54 pm 19:54 Mostly Cloudy 29 -1.7 3 -16.1 33 33 WNW 8 13 30.20 1023 10 16 0.00 0.00
8:54 pm 20:54 Mostly Cloudy 27 -2.8 5 -15 39 39 WSW 6 9 30.18 1022 10 16 0.00 0.00
9:54 pm 21:54 Mostly Cloudy 27 -2.8 7 -13.9 43 43 S 3 6 30.15 1021 10 16 0.00 0.00
10:54 pm 22:54 Mostly Cloudy 26 -3.3 8 -13.3 46 46 SSW 8 13 30.14 1021 10 16 0.00 0.00
11:54 pm 23:54 Partly Cloudy 26 -3.3 9 -12.8 48 48 SW 6 9 30.12 1020 10 16 0.00 0.00

Powered by AerisWeather